www.pogodaiklimat.ru
ПОГОДА в Рокленде
Время
и дата
01:56 30.01
02:56 30.01
03:56 30.01
04:56 30.01
05:56 30.01
06:56 30.01
07:56 30.01
08:56 30.01
09:56 30.01
10:56 30.01
11:56 30.01
12:56 30.01
13:56 30.01
14:56 30.01
15:56 30.01
16:56 30.01
17:56 30.01
18:10 30.01
18:56 30.01
19:56 30.01
20:56 30.01
21:56 30.01
22:56 30.01
23:20 30.01
23:56 30.01
00:19 31.01
00:45 31.01
00:56 31.01
01:08 31.01
01:13 31.01
01:31 31.01
01:44 31.01
01:56 31.01
02:21 31.01
02:36 31.01
02:50 31.01
02:56 31.01
03:42 31.01
03:56 31.01
04:15 31.01
04:30 31.01
04:38 31.01
04:56 31.01
05:48 31.01
05:56 31.01
06:56 31.01
07:01 31.01
07:22 31.01
Ветер
(напр.,м/с)
Видим. Явления Облачность Т
(С)
Тd
(С)
f
(%)
Тe
(С)
Тes
(С)
Комфортность P
(гПа)
Po
(гПа)
Тmin
(С)
Tmax
(С)
R
(мм)
R24
(мм)
S
(см)
З 2 16 км ясно 1013.8
З 2 16 км ясно 1014.4
СЗ 3 16 км ясно 1015.8
нст 3 16 км 10/10 1800 м 1016.8
нст 3 16 км 10/10 1650 м 1017.5
нст 3 16 км 8/8 1650 м 1018.8
нст 3 16 км 2/2 1410 м 1019.8
С 4 16 км ясно 1019.8
С 3 16 км ясно 1020.2
СВ 2 16 км ясно 1020.2
СВ 2 16 км 5/0 3600 m
[Ac]
1019.5
В 3 16 км 5/5 1230 м 1018.8
СВ 2 16 км 10/10 1290 м 1017.8
В 2 16 км 2/2 1170 м 1017.1
С 2 16 км 10/10 1020 м 1018.5
СВ 2 16 км 10/10 1080 м 1017.8
СВ 2 16 км 10/10 780 м 1017.5
СВ 2 16 км 10/10 780 м 1017.1
С 2 16 км 10/10 780 м 1017.5
СВ 3 16 км слабый дождь 10/10 720 m
[Ns]
1017.1
СВ 4 16 км 10/10 600 м 1017.1
СВ 5 16 км слабый дождь 10/10 480 m
[Ns]
1016.8
СВ 5 6 км слабый снег 10/10 480 m
[Ns]
1016.5
С 5
{8}
4 км слабый снег 10/10 480 m
[Ns]
1016.5
СВ 3 3 км слабый снег 10/10 210 m
[Ns]
1016.5
С 4 3 км слабый снег 10/10 150 m
[Ns]
1016.5
С 4
{7}
3 км слабый снег 10/10 150 m
[Ns]
1016.1
СВ 4 2 км слабый снег 10/10 150 m
[Ns]
1015.8 1.0
СВ 5 3 км слабый снег 10/10 150 m
[Ns]
1015.8
СВ 4 3 км слабый снег 10/10 150 m
[Ns]
1015.8
СВ 5
{8}
5 км слабый снег 10/10 150 m
[Ns]
1015.8
С 5 5 км слабый снег 10/10 210 m
[Ns]
1015.8
С 4
{7}
5 км слабый снег 10/10 210 m
[Ns]
1016.1
С 4 3 км слабый снег 10/10 210 m
[Ns]
1015.8
С 3 3 км слабый снег 10/10 210 m
[Ns]
1016.1
С 4 4 км слабый снег 10/10 210 m
[Ns]
1015.8
С 4 4 км слабый снег 10/10 210 m
[Ns]
1015.8
нст 2 2 км слабый снег 10/10 210 m
[Ns]
1016.1
нст 2 2 км слабый снег 10/10 270 m
[Ns]
1016.1 1.0
нст 3 4 км слабый снег 10/10 270 m
[Ns]
1016.8
нст 2 3 км слабый снег 10/10 270 m
[Ns]
1016.8
С 2 2 км слабый снег 10/10 210 m
[Ns]
1016.8
С 2 2 км слабый снег 10/10 210 m
[Ns]
1016.8
штиль 0 2 км слабый снег 10/10 180 m
[Ns]
1017.1
нст 2 3 км слабый снег 10/10 180 m
[Ns]
1016.8
С 2 3 км слабый снег 10/10 660 m
[Ns]
1017.5 1.3 2.3
СВ 2 5 км слабый снег 10/10 240 m
[Ns]
1017.1
С 2 14 км слабый снег 10/10 240 m
[Ns]
1017.5
Местоположение метеостанции Knox County Regional Airport: широта 44.0667 долгота -69.1000 высота над уровнем моря 17 м.
В архиве по умолчанию представлена погода в Рокленде за последние 1-2 суток. Обновление информации о фактической погоде в базе происходит ежечасно! Архивные данные за месяц целиком и за предыдущие месяцы Вы можете получить, выбрав интересующий диапазон дат из раскрывающегося списка и нажав кнопку "Ввод!".
Внимание! Архив погоды МЕТАР в базе сайта по станциям, не включенным в климатический монитор, хранится не более 60 дней. Нет смысла пытаться выбрать более раннюю дату.
*Определитесь, кто Вы:
Внимание! Время в таблицах - местное (без учета летнего времени). Для получения всемирного времени необходимо вычесть поправку, которая равна -5 ч.
Смотрите также архив погоды в соседних городах и на ближайших метеорологических станциях:
Партнеры нашего сайта:      
Пояснения к столбцам:
  • Ветер - указаны скорость ветра в м/с - средняя за 10 мин, порывы в срок и между сроками (в фигурных скобках) и направление, откуда дует ветер: С - северный,
  • СВ - северо-восточный, В - восточный, ЮВ - юго-восточный, Ю - южный, ЮЗ - юго-западный, З - западный, СЗ - северо-западный.
  • Видимость - горизонтальная дальность видимости в метрах или километрах. При видимости от 1 до 10 км при отсутствии осадков обычно наблюдается дымка, при ухудшении видимости до 1 км и менее - туман. В сухую погоду видимость может ухудшаться дымом, пылью или мглою.
  • Явления - указаны атмосферные явления, наблюдавшиеся в срок или в последний час перед сроком; фигурными скобками обозначены явления, наблюдавшиеся между сроками (за 1-3 часа до срока); квадратными скобками обозначены град или гололедные отложения с указанием их диаметра в мм.
  • Облачность - указаны через наклонную черту общая и нижняя облачность в баллах и высота нижней границы облаков в метрах; квадратными скобками обозначены формы облаков: Ci - перистые, Cs - перисто-слоистые, Cc - перисто-кучевые, Ac - высококучевые, As - высокослоистые, Sc - слоисто-кучевые, Ns - слоисто-дождевые, Cu - кучевые, Cb - кучево-дождевые. Подробнее классификацию облаков см. в Атласе облаков (PDF).
  • T - Температура воздуха - температура, измеренная на высоте 2 м над землей.
  • Td - Температура точки росы - температура, при понижении до которой содержащийся в воздухе водяной пар достигнет насыщения.
  • f - Относительная влажность воздуха - влажноcть воздуха, измеренная на высоте 2 м над землей.
  • Te - Эффективная температура - температура, которую ощущает одетый по сезону человек в тени. Характеристика душности погоды. При расчете учитывается влияние влажности воздуха и скорости ветра на теплоощущения человека.
  • Tes - Эффективная температура на солнце - температура, которую ощущает человек, с поправкой на солнечный нагрев. Характеристика знойности погоды. Зависит от высоты солнца над горизонтом, облачности и скорости ветра. Ночью, в пасмурную погоду, а также при ветре 12 м/с и более поправка равна нулю.
  • P - Атмосферное давление - приведенное к уровню моря атмосферное давление.
  • Po - Атмосферное давление - измеренное на уровне метеостанции атмосферное давление.
  • Tmin - Минимальная температура - минимум температуры воздуха на высоте 2 м над землей.
  • Tmax - Максимальная температура - максимум температуры воздуха на высоте 2 м над землей.
  • R - Количество осадков - Количество выпавших осадков за период времени, мм. При наведении курсора мыши на число - период времени, за который выпало указанное количество осадков.
  • R24 - Количество осадков - Количество выпавших осадков за 24 часа, мм.
  • S - Снежный покров - Высота снежного покрова, см. При наведении курсора мыши на число - состояние снежного покрова и степень покрытия местности в баллах.